| time (UTC) | temp F | wind direction | speed MPH | gust MPH | rain 1hr in | rain 24hr in | rain mn in | humidity % | barometer mb |
| 20260507104250 | 63 | 195 | 4.0 | 6.0 | 0.00 | 0.00 | 0.00 | 81 | 1014.4 |
| 20260507102749 | 62 | 236 | 6.0 | 9.0 | 0.00 | 0.00 | 0.00 | 84 | 1014.7 |
| 20260507101249 | 62 | 211 | 7.0 | 10.0 | 0.00 | 0.00 | 0.00 | 82 | 1014.4 |
| 20260507095749 | 63 | 203 | 12.0 | 16.0 | 0.00 | 0.00 | 0.00 | 81 | 1014.4 |
| 20260507094248 | 63 | 215 | 8.0 | 10.0 | 0.00 | 0.00 | 0.00 | 78 | 1014.5 |
| 20260507092748 | 63 | 192 | 5.0 | 7.0 | 0.00 | 0.00 | 0.00 | 80 | 1014.3 |
| 20260507091248 | 63 | 198 | 7.0 | 8.0 | 0.00 | 0.00 | 0.00 | 81 | 1014.3 |
| 20260507085747 | 63 | 189 | 5.0 | 8.0 | 0.00 | 0.00 | 0.00 | 81 | 1014.6 |
| 20260507084247 | 62 | 220 | 13.0 | 16.0 | 0.00 | 0.00 | 0.00 | 82 | 1014.0 |
| 20260507082747 | 63 | 272 | 6.0 | 9.0 | 0.00 | 0.00 | 0.00 | 80 | 1014.1 |
| 20260507081246 | 63 | 244 | 7.0 | 9.0 | 0.00 | 0.00 | 0.00 | 81 | 1013.8 |
| 20260507075746 | 63 | 212 | 7.0 | 10.0 | 0.00 | 0.00 | 0.00 | 81 | 1014.1 |
| 20260507074246 | 59 | 249 | 1.0 | 2.0 | 0.00 | 0.00 | 0.00 | 85 | 1013.7 |
| 20260507072745 | 59 | 233 | 1.0 | 2.0 | 0.00 | 0.00 | 0.00 | 85 | 1013.8 |
| 20260507071245 | 60 | 266 | 1.0 | 1.0 | 0.00 | 0.00 | 0.00 | 84 | 1013.7 |
| 20260507065744 | 60 | 186 | 1.0 | 1.0 | 0.00 | 0.00 | 0.00 | 82 | 1013.6 |
| 20260507064244 | 60 | 306 | 1.0 | 1.0 | 0.00 | 0.00 | 0.00 | 82 | 1013.6 |
| 20260507062744 | 57 | 197 | 1.0 | 2.0 | 0.00 | 0.00 | 0.00 | 84 | 1013.7 |
| 20260507061243 | 59 | 69 | 2.0 | 3.0 | 0.00 | 0.00 | 0.00 | 84 | 1013.3 |
| 20260507055743 | 60 | 7 | 3.0 | 3.0 | 0.00 | 0.00 | 0.00 | 80 | 1013.1 |
| 20260507054243 | 59 | 243 | 2.0 | 3.0 | 0.00 | 0.00 | 0.00 | 83 | 1013.1 |
| 20260507052742 | 58 | 311 | 1.0 | 2.0 | 0.00 | 0.00 | 0.00 | 85 | 1013.1 |
| 20260507051242 | 55 | 100 | 2.0 | 3.0 | 0.00 | 0.00 | 0.00 | 89 | 1012.8 |
| 20260507045742 | 56 | 26 | 3.0 | 4.0 | 0.00 | 0.00 | 0.00 | 87 | 1012.8 |
| 20260507044242 | 54 | 46 | 2.0 | 3.0 | 0.00 | 0.00 | 0.00 | 91 | 1012.5 |
| 20260507042741 | 54 | 302 | 1.0 | 1.0 | 0.00 | 0.00 | 0.00 | 92 | 1012.2 |
| 20260507041241 | 54 | 339 | 1.0 | 1.0 | 0.00 | 0.00 | 0.00 | 93 | 1012.6 |
| 20260507035741 | 54 | 23 | 2.0 | 3.0 | 0.00 | 0.00 | 0.00 | 92 | 1012.4 |
| 20260507034241 | 54 | 246 | 1.0 | 1.0 | 0.00 | 0.00 | 0.00 | 93 | 1012.3 |
| 20260507032741 | 54 | 316 | 0.0 | 1.0 | 0.00 | 0.00 | 0.00 | 94 | 1012.3 |
| 20260507031241 | 54 | 123 | 3.0 | 3.0 | 0.00 | 0.00 | 0.00 | 93 | 1012.3 |
| 20260507025741 | 54 | 116 | 2.0 | 3.0 | 0.00 | 0.00 | 0.00 | 94 | 1012.4 |
| 20260507024241 | 54 | 267 | 0.0 | 1.0 | 0.00 | 0.00 | 0.00 | 93 | 1012.4 |
| 20260507022740 | 55 | 86 | 2.0 | 3.0 | 0.00 | 0.00 | 0.00 | 93 | 1012.3 |
| 20260507021240 | 54 | 333 | 1.0 | 2.0 | 0.00 | 0.00 | 0.00 | 93 | 1012.3 |
| 20260507015740 | 55 | 293 | 1.0 | 2.0 | 0.00 | 0.00 | 0.00 | 91 | 1012.5 |
| 20260507014240 | 54 | 84 | 2.0 | 2.0 | 0.00 | 0.00 | 0.00 | 94 | 1012.5 |
| 20260507012740 | 55 | 52 | 3.0 | 4.0 | 0.00 | 0.00 | 0.00 | 93 | 1012.3 |
| 20260507011240 | 55 | 338 | 1.0 | 1.0 | 0.00 | 0.00 | 0.00 | 92 | 1012.5 |
| 20260507005740 | 55 | 333 | 1.0 | 2.0 | 0.00 | 0.00 | 0.00 | 92 | 1012.5 |
| 20260507004240 | 56 | 185 | 1.0 | 2.0 | 0.00 | 0.00 | 0.00 | 90 | 1012.6 |
| 20260507002739 | 55 | 74 | 2.0 | 2.0 | 0.00 | 0.00 | 0.00 | 92 | 1012.6 |
| 20260507001239 | 56 | 131 | 3.0 | 4.0 | 0.00 | 0.00 | 0.00 | 90 | 1012.4 |
| 20260506235739 | 56 | 345 | 1.0 | 2.0 | 0.00 | 0.00 | 0.00 | 91 | 1012.7 |
| 20260506234239 | 56 | 257 | 2.0 | 2.0 | 0.00 | 0.00 | 0.00 | 90 | 1012.6 |
| 20260506232739 | 55 | 321 | 1.0 | 2.0 | 0.00 | 0.00 | 0.00 | 91 | 1012.8 |
| 20260506231238 | 55 | 59 | 2.0 | 3.0 | 0.00 | 0.00 | 0.00 | 93 | 1012.6 |
| 20260506225738 | 56 | 163 | 3.0 | 3.0 | 0.00 | 0.00 | 0.00 | 91 | 1012.6 |
| 20260506224238 | 56 | 253 | 1.0 | 1.0 | 0.00 | 0.00 | 0.00 | 90 | 1012.8 |
| 20260506222738 | 55 | 64 | 2.0 | 2.0 | 0.00 | 0.00 | 0.00 | 91 | 1012.6 |
| 20260506221238 | 56 | 121 | 3.0 | 4.0 | 0.00 | 0.00 | 0.00 | 90 | 1012.6 |
| 20260506215737 | 56 | 177 | 2.0 | 2.0 | 0.00 | 0.00 | 1.43 | 90 | 1012.9 |
| 20260506214237 | 56 | 248 | 1.0 | 2.0 | 0.00 | 0.00 | 1.43 | 90 | 1012.7 |
| 20260506212737 | 56 | 197 | 4.0 | 6.0 | 0.00 | 0.00 | 1.43 | 91 | 1012.8 |
| 20260506211236 | 57 | 259 | 2.0 | 2.0 | 0.00 | 0.00 | 1.43 | 90 | 1012.6 |
| 20260506205736 | 56 | 269 | 0.0 | 0.0 | 0.00 | 0.00 | 1.43 | 92 | 1012.8 |
| 20260506204235 | 57 | 54 | 2.0 | 3.0 | 0.00 | 0.00 | 1.43 | 90 | 1012.7 |
| 20260506202735 | 57 | 263 | 0.0 | 0.0 | 0.00 | 0.00 | 1.43 | 92 | 1012.4 |
| 20260506201235 | 57 | 52 | 3.0 | 4.0 | 0.00 | 0.00 | 1.43 | 93 | 1012.3 |
| 20260506195735 | 57 | 253 | 1.0 | 2.0 | 0.00 | 0.00 | 1.43 | 92 | 1012.2 |
| 20260506194234 | 57 | 241 | 0.0 | 0.0 | 0.00 | 0.00 | 1.43 | 93 | 1012.1 |
| 20260506192734 | 57 | 267 | 1.0 | 3.0 | 0.00 | 0.00 | 1.43 | 93 | 1011.8 |
| 20260506191233 | 57 | 145 | 2.0 | 3.0 | 0.00 | 0.00 | 1.43 | 93 | 1011.5 |
| 20260506185733 | 57 | 248 | 2.0 | 3.0 | 0.00 | 0.00 | 1.43 | 93 | 1011.4 |
| 20260506184232 | 57 | 212 | 3.0 | 6.0 | 0.00 | 0.00 | 1.43 | 92 | 1011.3 |
| 20260506182732 | 57 | 228 | 2.0 | 3.0 | 0.00 | 0.00 | 1.43 | 93 | 1011.2 |
| 20260506181232 | 57 | 192 | 4.0 | 5.0 | 0.00 | 0.00 | 1.43 | 92 | 1010.8 |
| 20260506175731 | 57 | 207 | 5.0 | 7.0 | 0.00 | 0.00 | 1.43 | 92 | 1010.9 |
| 20260506174231 | 58 | 130 | 9.0 | 12.0 | 0.00 | 0.00 | 1.43 | 90 | 1010.8 |
| 20260506172731 | 58 | 196 | 7.0 | 9.0 | 0.00 | 0.00 | 1.43 | 89 | 1010.7 |
| 20260506171231 | 59 | 206 | 7.0 | 10.0 | 0.00 | 0.00 | 1.43 | 89 | 1010.6 |
| 20260506165731 | 59 | 200 | 5.0 | 6.0 | 0.00 | 0.00 | 1.43 | 89 | 1010.6 |
| 20260506164231 | 59 | 223 | 8.0 | 10.0 | 0.00 | 0.00 | 1.43 | 89 | 1010.5 |
| 20260506162730 | 60 | 177 | 9.0 | 11.0 | 0.00 | 0.00 | 1.43 | 87 | 1010.5 |
| 20260506161230 | 62 | 211 | 4.0 | 5.0 | 0.00 | 0.00 | 1.43 | 86 | 1010.5 |
| 20260506155730 | 60 | 207 | 8.0 | 11.0 | 0.00 | 0.00 | 1.43 | 92 | 1010.3 |
| 20260506154230 | 60 | 197 | 8.0 | 10.0 | 0.00 | 0.00 | 1.43 | 91 | 1010.5 |
| 20260506152729 | 60 | 215 | 6.0 | 8.0 | 0.00 | 0.00 | 1.43 | 93 | 1010.6 |
| 20260506151229 | 60 | 225 | 6.0 | 8.0 | 0.00 | 0.00 | 1.43 | 92 | 1010.3 |
| 20260506145729 | 63 | 216 | 9.0 | 14.0 | 0.00 | 0.00 | 1.43 | 86 | 1010.4 |
| 20260506144228 | 64 | 193 | 8.0 | 11.0 | 0.00 | 0.00 | 1.43 | 87 | 1010.3 |
| 20260506142728 | 62 | 234 | 6.0 | 7.0 | 0.00 | 0.00 | 1.43 | 89 | 1010.2 |
| 20260506141228 | 64 | 185 | 5.0 | 7.0 | 0.00 | 0.00 | 1.43 | 86 | 1010.1 |
| 20260506135728 | 63 | 202 | 8.0 | 12.0 | 0.00 | 0.00 | 1.43 | 88 | 1010.2 |
| 20260506134227 | 63 | 184 | 8.0 | 9.0 | 0.00 | 0.00 | 1.43 | 90 | 1010.4 |
| 20260506132727 | 63 | 265 | 7.0 | 8.0 | 0.00 | 0.00 | 1.43 | 91 | 1010.7 |
| 20260506131227 | 61 | 166 | 9.0 | 11.0 | 0.00 | 0.00 | 1.43 | 94 | 1010.4 |
| 20260506125727 | 62 | 193 | 5.0 | 9.0 | 0.00 | 0.00 | 1.43 | 93 | 1010.5 |
| 20260506124226 | 61 | 150 | 6.0 | 10.0 | 0.00 | 0.00 | 1.43 | 92 | 1010.6 |
| 20260506122726 | 62 | 214 | 9.0 | 11.0 | 0.00 | 0.00 | 1.43 | 90 | 1010.6 |
| 20260506121226 | 62 | 188 | 7.0 | 9.0 | 0.00 | 0.00 | 1.43 | 91 | 1010.4 |
| 20260506115725 | 63 | 163 | 8.0 | 9.0 | 0.00 | 0.00 | 1.43 | 86 | 1010.4 |
| 20260506114225 | 62 | 159 | 5.0 | 9.0 | 0.00 | 0.00 | 1.43 | 91 | 1010.4 |
| 20260506112725 | 63 | 175 | 9.0 | 11.0 | 0.00 | 0.00 | 1.43 | 88 | 1010.3 |
| 20260506111224 | 62 | 225 | 6.0 | 7.0 | 0.00 | 0.00 | 1.43 | 92 | 1010.3 |
| 20260506105724 | 60 | 209 | 10.0 | 11.0 | 0.00 | 0.00 | 1.43 | 95 | 1010.5 |